EW8749 Weather Reports


Display with metric or nautical units.
time (UTC)temp
F
wind
direction
speed
MPH
gust
MPH
rain 1hr
in
rain 24hr
in
rain mn
in
humidity
%
barometer
mb
20260503033050 66 312 0.0 3.0 0.00 0.02 0.02 71 1018.4
20260503031547 65 258 0.0 0.0 0.00 0.02 0.02 74 1018.7
20260503030045 65 258 0.0 0.0 0.00 0.02 0.02 74 1019.0
20260503004546 61 107 0.0 3.0 0.00 0.02 0.02 81 1021.2
20260503003048 60 141 0.0 2.0 0.00 0.02 0.02 83 1021.4
20260503001542 59 159 0.0 0.0 0.00 0.02 0.02 85 1021.5
20260503000044 59 99 0.0 0.0 0.00 0.02 0.02 86 1021.7
20260502234549 58 99 0.0 0.0 0.00 0.02 0.02 89 1021.9
20260502233031 57 99 0.0 0.0 0.00 0.02 0.02 90 1021.8
20260502231533 56 99 0.0 0.0 0.00 0.02 0.02 91 1022.1
20260502230028 55 99 0.0 0.0 0.00 0.02 0.02 91 1022.1
20260502070043 66 187 0.0 0.0 0.00 0.00 0.00 70 1021.1
20260502064546 67 187 0.0 0.0 0.00 0.00 0.00 68 1021.1
20260502063037 68 187 0.0 0.0 0.00 0.00 0.00 68 1021.0
20260502061537 68 187 0.0 0.0 0.00 0.00 0.00 67 1021.0
20260502060035 68 187 0.0 0.0 0.00 0.00 0.00 67 1021.2
20260502054536 68 186 0.0 0.0 0.00 0.00 0.00 66 1021.2
20260502053034 68 187 0.0 0.0 0.00 0.00 0.00 64 1021.3
20260502051536 68 186 0.0 0.0 0.00 0.00 0.00 65 1021.4
20260502050042 68 187 0.0 0.0 0.00 0.00 0.00 63 1021.5
20260502044529 68 187 0.0 0.0 0.00 0.00 0.00 64 1021.6
20260502043032 68 164 0.0 3.0 0.00 0.00 0.00 64 1021.8
20260502041526 68 208 0.0 6.0 0.00 0.00 0.00 64 1022.1
20260502040024 70 211 1.0 4.0 0.00 0.00 0.00 60 1022.1
20260502034524 70 196 0.0 5.0 0.00 0.00 0.00 61 1022.1